{"data":{"norad_id":69253,"intl_designator":"2026-117R","name":"STARLINK-37368","alt_names":[],"object_type":"PAYLOAD","status":"ACTIVE","operator":null,"country":"US","launch_date":"2026-05-29","launch_site_code":"AFETR","launch_vehicle":null,"mission":null,"orbit_class":"UNKNOWN","rcs_meters":null,"size_class":null,"mass_kg":null,"dimensions":null,"purposes":["comms"],"wikipedia_slug":null,"has_3d_model":false,"image_url":null,"decayed_at":null,"tle_current":{"epoch":"2026-09-19T05:13:24.316320Z","epoch_age_seconds":137756,"freshness":"FRESH","line1":"1 69253U 26117R   26262.21764255  .00017507  00000+0  52789-3 0  9995","line2":"2 69253  53.1563 159.4729 0001197  87.5817 272.5322 15.34410270 17470","mean_motion":15.3441027,"eccentricity":0.0001197,"inclination_deg":53.1563,"raan_deg":159.4729,"arg_perigee_deg":87.5817,"mean_anomaly_deg":272.5322,"bstar":0.00052789,"rev_number":1747,"period_min":93.847129946543,"perigee_km":461.85387085008,"apogee_km":463.49156069603,"semimajor_km":6840.8097157731,"source":"CELESTRAK","updated_at":"2026-09-20T09:00:44.150564Z"}}}